Tracking 33094 objects as of 25-Jan-2026
HD Live streaming from Space Station
objects crossing your sky now

THOR ABLESTAR DEB

Track THOR ABLESTAR DEB now!
10-day predictions


NORAD ID: 5876
Int'l Code: 1961-015KF
Perigee: 905.9 km
Apogee: 2,045.1 km
Inclination: 65.7 °
Period: 115.3 minutes
Semi major axis: 7846 km
RCS: 0.0752 m2 (small)
Launch date: June 29, 1961
Source: United States (US)
Launch site: AIR FORCE EASTERN TEST RANGE (AFETR)

Note: This is SATELLITE DEBRIS
Your satellite tracking list
Your tracking list is empty




NASA's NSSDC Master Catalog

Two Line Element Set (TLE):
1  5876U 61015KF  26024.98092823  .00000329  00000-0  98902-3 0  9999
2  5876  65.6702 231.1654 0725924 322.6306  32.6231 12.49064621147225
Source of the keplerian elements: AFSPC